Home > Weather > Gross-Gerau > Past weeks

Flag for Germany Past Weather in Gross-Gerau, Hesse, Germany — Yesterday and Last 2 Weeks

Now
63 °F

Passing clouds.


Feels Like: 63 °F
Forecast: 55 / 79 °F
Wind: 9 mph from Northeast

Location: Frankfurt-M-Flughafen Airport

Current Time: Aug 30, 2016 at 7:20:39 AM

Latest Report: Aug 30, 2016 at 6:50 AM


Visibility: N/A

Pressure: 30.24 "Hg

Humidity: 77%

Dew Point: 55 °F

Location of Gross-GerauLocation

Past Weather in Gross-Gerau — Graph

°F

Gross-Gerau Temperature Yesterday

Maximum temperature yesterday: 79 °F (at 3:50 PM)
Minimum temperature yesterday: 61 °F (at 6:20 AM)
Average temperature yesterday: 71 °F

High & Low Weather Summary for the Past Weeks

 TemperatureHumidityPressure
High95 °F (Aug 27, 3:20 PM)100% (Aug 19, 6:20 AM)30.39 "Hg (Aug 19, 6:20 AM)
Low52 °F (Aug 23, 6:20 AM)26% (Aug 27, 5:20 PM)29.80 "Hg (Aug 18, 1:50 PM)
Average71 °F65%30.06 "Hg
* Reported Aug 15 6:20 AM — Aug 30 6:20 AM, Gross-Gerau, Weather by CustomWeather, © 2016

Note: Actual official high and low records may vary slightly from our data, if they occured in-between our weather recording intervals... More about our weather records

Advertising

Gross-Gerau Weather History for the Previous 24 Hours

Scroll right to see more
 ConditionsComfort  
Time TempWeatherWind HumidityBarometerVisibility
6:20 AM
Tue, Aug 30
63 °FClear.9 mph77%30.24 "Hg10 mi
5:50 AM63 °FClear.7 mph77%30.24 "Hg10 mi
5:20 AM64 °FClear.9 mph73%30.21 "Hg10 mi
4:50 AM64 °FClear.10 mph73%30.24 "Hg10 mi
4:20 AM64 °FClear.7 mph73%30.24 "Hg10 mi
3:50 AM64 °FClear.8 mph73%30.24 "Hg10 mi
3:20 AM66 °FClear.8 mph68%30.24 "Hg10 mi
2:50 AM66 °FClear.8 mph68%30.21 "Hg10 mi
2:20 AM64 °FClear.7 mph78%30.21 "Hg10 mi
1:50 AM66 °FClear.6 mph73%30.21 "Hg10 mi
1:20 AM66 °FClear.7 mph73%30.21 "Hg10 mi
12:50 AM68 °FClear.8 mph69%30.21 "Hg10 mi
12:20 AM68 °FClear.7 mph69%30.21 "Hg10 mi
11:50 PM
Mon, Aug 29
68 °FClear.7 mph69%30.21 "Hg10 mi
11:20 PM68 °FPassing clouds.5 mph69%30.21 "HgN/A
10:50 PM68 °FPassing clouds.7 mph69%30.18 "HgN/A
10:20 PM68 °FClear.8 mph69%30.18 "Hg10 mi
9:50 PM68 °FClear.9 mph69%30.18 "Hg10 mi
9:20 PM68 °FPassing clouds.12 mph69%30.15 "HgN/A
8:50 PM70 °FPartly sunny.8 mph60%30.15 "HgN/A
8:20 PM70 °FScattered clouds.10 mph60%30.15 "HgN/A
7:50 PM72 °FPartly sunny.14 mph57%30.12 "HgN/A
7:20 PM72 °FScattered clouds.13 mph57%30.12 "HgN/A
6:50 PM73 °FScattered clouds.14 mph53%30.09 "HgN/A
6:20 PM75 °FScattered clouds.14 mph50%30.09 "HgN/A
5:50 PM77 °FScattered clouds.13 mph47%30.09 "HgN/A
5:20 PM77 °FPassing clouds.13 mph44%30.09 "HgN/A
4:50 PM79 °FPassing clouds.9 mph42%30.09 "HgN/A
4:20 PM79 °FPassing clouds.12 mph42%30.07 "HgN/A
3:50 PM79 °FPassing clouds.8 mph39%30.07 "HgN/A
3:20 PM77 °FScattered clouds.9 mph44%30.07 "HgN/A
2:50 PM77 °FScattered clouds.9 mph47%30.09 "HgN/A
2:20 PM77 °FBroken clouds.7 mph44%30.09 "HgN/A
1:50 PM75 °FScattered clouds.10 mph50%30.07 "HgN/A
1:20 PM75 °FScattered clouds.8 mph50%30.07 "HgN/A
12:50 PM77 °FScattered clouds.9 mph44%30.07 "HgN/A
12:20 PM75 °FScattered clouds.12 mph50%30.07 "HgN/A
11:50 AM75 °FScattered clouds.7 mph50%30.07 "HgN/A
11:20 AM73 °FScattered clouds.7 mph53%30.07 "HgN/A
10:50 AM73 °FScattered clouds.8 mph53%30.07 "HgN/A
10:20 AM73 °FScattered clouds.6 mph53%30.07 "HgN/A
9:50 AM72 °FScattered clouds.7 mph57%30.07 "HgN/A
9:20 AM72 °FScattered clouds.8 mph57%30.07 "HgN/A
8:50 AM70 °FScattered clouds.9 mph64%30.07 "HgN/A
8:20 AM66 °FScattered clouds.5 mph78%30.07 "HgN/A
7:50 AM64 °FScattered clouds.5 mph83%30.07 "HgN/A
7:20 AM61 °FPassing clouds.5 mph88%30.04 "HgN/A
Weather by CustomWeather, © 2016

See weather overviewHow to use our weather pages